Miscellaneous Local Product
Issued by NWS North Platte, NE

Home | Current Version | Previous Version | Graphics & Text | Print | Product List | Glossary On
Versions: 1 2 3 4 5 6 7 8 9 10 11 12 13 14 15 16 17 18 19 20 21 22 23 24 25 26 27 28 29 30 31 32 33 34 35 36 37 38 39 40 41 42 43 44 45 46 47 48 49 50
000
AXUS43 KLBF 280010
MISLBF


WESTERN AND NORTH CENTRAL NEBRASKA HOURLY WEATHER ROUNDUP
NATIONAL WEATHER SERVICE NORTH PLATTE NE
600 PM CST SAT DEC 27 2014

***STATIONS NOT REPORTING VARIABLES SUCH AS SKY/WEATHER OR
PRESSURE ARE PROVIDED BY THE NEBRASKA DEPARTMENT OF
ROADS...RAWS...AND APRS NETWORKS...AND ARE NOT UNDER
NATIONAL WEATHER SERVICE QUALITY CONTROL***

...OBSERVATIONS IN AND NEAR THE EASTERN PANHANDLE OF NEBRASKA...

CITY           SKY/WX    TMP DP  RH WIND       PRES   REMARKS
PINE RIDGE     CLEAR     12   5  73 SW5       30.06S WCI   4
CHADRON        CLEAR      9   3  77 SW7       30.07S WCI  -2
ALLIANCE       CLEAR      9   3  77 W9        30.07R WCI  -4
SIDNEY         CLEAR      5   0  79 CALM      30.10R
WHITECLAY        N/A     18   7  62 CALM        N/A
LISCO            N/A     12   2  64 CALM        N/A
BIG SPRINGS      N/A      8   2  78 SW3         N/A
$$

...OBSERVATIONS IN NORTH CENTRAL NEBRASKA...

CITY           SKY/WX    TMP DP  RH WIND       PRES   REMARKS
VALENTINE      CLEAR     14   9  80 SW12      30.09S WCI   0
THEDFORD       CLEAR     19  15  82 SW5       30.12S WCI  12
AINSWORTH      CLEAR     15  10  81 SW7       30.10S WCI   5
O`NEILL        CLEAR     15  14  93 SW6       30.15S WCI   7
ORD            CLEAR     17  12  80 CALM      30.17R
BROKEN BOW     CLEAR     16  10  77 CALM      30.15S
BROWNLEE         N/A     18   8  65 W3          N/A
SPRINGVIEW       N/A     18  12  78 CALM        N/A
BREWSTER         N/A     20  17  88 CALM        N/A
ROSE             N/A     24  22  93 SE7         N/A  WCI  16
SARGENT          N/A     20  15  79 CALM        N/A
COMSTOCK         N/A     26  19  72 S5          N/A  WCI  21
CHAMBERS         N/A     15   9  75 CALM        N/A
EWING            N/A     15  11  85 CALM        N/A
$$

...OBSERVATIONS IN SOUTHWEST NEBRASKA AND FAR NORTHEAST COLORADO...

CITY           SKY/WX    TMP DP  RH WIND       PRES   REMARKS
WRAY           FAIR      23  13  66 CALM      30.15S
HOLYOKE        FAIR      14   9  79 SW8       30.14R WCI   3
IMPERIAL       CLEAR     19  10  68 SW3       30.16R
OGALLALA       CLEAR     13   8  78 CALM      30.14S
NORTH PLATTE   CLEAR     13   8  81 W6        30.16R WCI   4
MCCOOK         CLEAR     21  13  71 SW5       30.19F WCI  15
LEXINGTON      CLEAR     18  13  80 SW6       30.19S WCI  10
PAXTON           N/A     15   9  76 SW3         N/A
BRADY            N/A     19  13  79 CALM        N/A
GOTHENBURG       N/A     22  15  73 SW3         N/A
CALLAWAY         N/A     12   9  87 S5          N/A  WCI   4
$$

...NORTH PLATTE AREA...

CITY           SKY/WX    TMP DP  RH WIND       PRES   REMARKS
AIRPORT        CLEAR     13   8  81 W6        30.16R WCI   4
DOWNTOWN         N/A     22  13  68 CALM        N/A
$$

...SOME WEATHER OBSERVATIONS FROM AROUND THE REGION...

CITY           SKY/WX    TMP DP  RH WIND       PRES   REMARKS
DENVER         PTCLDY    17  11  77 S10       30.04S WCI   5
LARAMIE        MOCLDY    14   2  58 W20       29.98S WCI  -3
CHEYENNE       MOCLDY    14   2  58 SW9       30.02R WCI   2
SCOTTSBLUFF    PTCLDY    18  10  71 W7        30.09R WCI   9
RAPID CITY     MOCLDY    20  14  77 W6        30.04R WCI  12
PIERRE         PTCLDY    21  16  81 SW10      30.07R WCI  10
WINNER         FAIR      19  10  68 SW9       30.10F WCI   8
SIOUX FALLS    CLEAR     13   9  84 SW7       30.15S WCI   3
OMAHA          CLEAR     22  14  71 NW7       30.26R WCI  13
GRAND ISLAND   CLEAR     17  11  77 SW7       30.22S WCI   8
KANSAS CITY    PTCLDY    27  20  75 NW6       30.25S WCI  20
WICHITA        CLEAR     30  17  58 NW8       30.27F WCI  22
HAYS           CLEAR     25  10  54 W5        30.25S WCI  19
LIBERAL        CLEAR     30  16  55 CALM      30.25F
GOODLAND       CLEAR     18  11  74 SW7       30.17S WCI   9
$$



USA.gov is the U.S. government's official web portal to all federal, state and local government web resources and services.